INTELSAT 33E DEB, 61997

Orbit data source: Space-Track

INTELSAT 33E DEB, 61997 is space debris originally from a launch on Wed, 24 Aug 2016 UTC launched from the French Guiana (FRGUI). Debris objects in space refer to the collection of defunct objects orbiting the Earth. Examples of debris include non-operational satellites, rocket bodies, and fragments generated from explosions, collisions, or faulty payload assembly.

Not visible in the next 10 days
INTELSAT 33E DEB details
Identifier
61997, 2016-053P
Orbit
Active
Last TLE update2 days ago
Origin
Flag of USIntelsat SA (US) (US / ITSO)
ManufacturerBoeing/ES
MissionSpacecraft
Bus & MotorUnknown
MassUnknown
Launch date (UTC)
2016-08-24 (8 years ago)
Launch vehicleUnknown
Launch site
French Guiana (FRGUI)
Object type
Payload
Rocket body
Debris
Shape & HBRUnknown
Radar Cross SectionRCS unknown

Expand to show TLE details & history

TLE from 2 days ago
0 INTELSAT 33E DEB
1 61997U 16053P   24346.88769019 -.00000067  00000-0  00000-0 0  9998
2 61997   0.1686 114.7706 0096590 226.5187  18.3743  1.01609572   558
Epoch: 2024-12-11T21:18Z
Definitive object data (Epoch: 2024-12-11T21:18:16.432Z)
Latitude-0.14131°
Longitude-40.64439°
Altitude35,034.284 km
Speed3.117 km/s
True Right ascension00h 00m 00s
True Declination0° 08' 28"
Sunlit
Object was in daylight at TLE epoch
Visualization TLE readout
Latitude-0.1523°
Longitude-31.82595°
Altitude35,058.497 km
Speed3.115 km/s
Apparent Right ascension01h 02m 05s
Apparent Declination-5° 54' 40"
Sunlit
Object is in daylight
Visualization observer readout
Local Sidereal Time19:38:21
Azimuth100.361° ESE
Elevation3.105°
Doppler factor1
Orbital elements
Apogee altitude35,820.462 km
Perigee altitude35,013.068 km
Semi-major axis41,794.902 km
Eccentricity0.009659
Inclination0.1686°
RAAN114.7706°
Arg. of periapsis226.5187°
True anomaly18.72724°
Mean anomaly18.3743°
Eccentric anomaly18.55036°
Mean motion0.25401 °/min
BSTARUnknown
Orbital period1417.24 mins
Loading maneuver chart data...
Loading historical data...
Loading historical data...
Loading historical data...
Loading historical data...
Loading historical data...
Loading historical data...
Loading historical data...

INTELSAT 33E DEB Visibility forecast

Observer location: undefined°, undefined

INTELSAT 33E DEB is not visible in the next 10 days
Span
Click to sort rows by Start time (UTC) header in descending order
Start Az.
Max El. time (UTC)
Max El. Az.
Max El.
End time (UTC)
End Az.
|